Theta_e
287 283 278 280 280 282 281 281 277 278 282 279 277 277 279 280 280 281 281 282 282 282 283 284 284 283 283 283 283 283 284 284 284 283 283 283 282 286 285 289 287 288 288 288
282 279 282 283 283 279 279 277 275 278 280 279 278 277 279 280 279 280 280 279 280 280 281 282 282 281 281 281 281 282 283 283 283 283 283 282 282 284 283 284 285 285 285 286
280 280 284 280 280 281 278 277 275 277 279 277 276 276 276 278 278 278 278 278 278 279 278 279 280 279 279 279 280 282 282 283 283 283 283 282 282 281 281 282 283 283 284 285
280 281 280 280 279 280 278 280 279 279 275 270 275 271 275 275 276 278 278 276 277 276 278 279 278 278 278 279 279 281 281 282 283 282 281 280 278 278 280 281 282 283 284 284
280 279 279 279 280 281 278 280 279 278 272 272 272 267 274 274 275 276 277 277 276 277 277 277 278 279 279 279 279 279 280 281 281 281 280 279 278 280 280 281 280 281 282 283
280 282 280 279 281 281 281 278 277 275 271 267 264 267 274 273 275 274 276 277 277 276 276 277 278 279 278 278 278 279 280 280 280 280 280 279 278 278 278 279 279 279 280 281
278 280 280 281 278 280 279 273 268 270 267 270 259 266 276 277 276 276 277 276 276 276 276 276 276 277 277 278 278 279 279 279 279 279 279 279 279 278 278 278 278 278 278 279
270 274 277 280 278 276 277 272 270 264 266 269 261 268 276 275 275 276 277 277 276 276 277 277 277 277 277 278 278 278 279 279 279 278 278 279 279 279 279 279 278 278 278 278
271 275 279 280 279 277 276 270 274 263 255 262 268 273 278 276 275 275 276 276 276 276 276 276 277 277 277 277 277 277 278 278 278 278 278 278 278 278 278 278 278 278 278 279
275 271 275 279 279 278 276 277 271 268 264 263 267 263 274 273 271 274 275 275 275 276 277 277 277 277 277 277 277 277 277 277 277 278 277 278 278 278 278 278 278 277 278 278
275 271 274 277 271 272 273 271 270 270 270 265 262 269 274 272 270 271 273 276 271 271 275 275 276 277 277 276 275 276 276 276 276 277 277 277 277 278 278 278 277 277 277 277
279 276 268 273 274 276 276 274 275 269 266 266 266 270 273 267 265 262 271 273 271 269 272 272 274 276 275 274 274 274 275 275 276 276 276 277 277 277 277 276 276 277 276 276
278 270 265 273 273 274 272 276 274 269 272 266 265 273 268 264 265 266 266 269 269 268 268 270 272 273 273 273 274 273 274 274 275 275 275 276 276 276 275 276 276 276 275 275
282 275 270 271 272 269 271 273 274 272 266 271 272 276 280 279 269 271 268 268 265 266 265 265 268 270 271 272 271 271 272 274 274 275 274 274 274 275 275 275 275 275 274 273
278 267 270 271 271 268 273 274 272 271 274 270 276 266 277 277 271 268 262 261 261 266 268 267 266 267 268 267 268 269 269 272 273 273 272 272 274 274 274 274 274 274 274 273
278 267 266 267 272 272 270 273 274 273 274 273 274 273 279 272 258 264 265 262 266 265 265 266 266 267 268 266 267 270 270 270 271 270 270 271 272 272 272 273 273 273 273 272
272 266 263 265 266 266 269 270 273 270 267 269 267 274 260 266 266 266 268 267 264 261 263 265 266 267 267 266 268 268 269 269 268 268 269 270 270 270 271 271 272 271 270 270
265 263 260 264 264 262 277 273 273 272 273 270 271 273 267 268 268 268 268 264 264 264 265 267 267 267 268 264 265 267 265 266 268 268 268 270 268 268 270 270 269 269 269 268
276 268 264 261 254 270 276 272 272 272 273 276 274 275 271 269 270 272 271 270 269 268 269 268 267 265 267 269 269 269 269 268 267 267 267 268 267 265 265 265 265 266 266 267
273 270 269 255 260 264 274 272 273 274 270 272 274 273 271 271 268 270 271 272 272 273 273 273 273 272 271 271 271 270 268 268 267 267 267 265 265 263 262 263 264 265 266 267
270 271 268 264 261 267 275 274 274 269 276 272 273 272 271 270 271 271 272 271 272 272 272 273 272 271 270 270 270 268 268 266 267 268 266 264 263 263 263 263 264 265 265 265
270 269 267 262 266 268 274 274 274 276 273 273 272 272 271 271 271 271 270 271 271 270 271 271 270 268 269 269 268 266 265 266 267 265 263 263 262 263 264 263 264 265 263 262
271 276 273 274 274 277 276 275 275 275 274 273 272 272 271 270 269 270 269 269 270 269 270 270 267 266 267 267 266 264 264 265 263 262 260 261 261 263 263 263 261 261 263 263
273 276 275 276 278 278 278 277 275 275 274 274 273 272 271 268 269 269 268 269 268 268 267 266 264 264 264 265 265 263 263 262 260 259 259 260 260 260 261 261 261 261 261 261
278 276 276 275 279 278 275 276 275 274 274 272 272 271 270 269 269 269 268 267 267 266 265 264 263 263 262 263 262 261 261 260 259 259 259 259 260 259 259 260 260 261 263 264
276 279 276 278 280 278 275 276 274 272 271 271 270 268 269 268 268 268 266 266 265 264 264 263 263 262 261 261 260 260 260 260 258 257 258 258 258 258 258 258 258 263 265 267
Wind_Speed
8 12 5 4 2 2 1 2 4 3 2 4 4 5 5 3 4 6 4 5 4 4 3 5 6 6 7 8 9 10 10 10 9 8 9 6 9 7 9 6 11 10 11 13
9 7 4 5 2 4 4 0 4 6 2 2 5 11 8 8 5 5 6 4 3 2 3 5 6 6 7 6 6 7 8 7 7 6 5 3 6 4 7 6 7 8 12 11
8 1 4 1 6 3 1 2 2 5 8 1 7 9 5 4 3 2 2 2 2 2 1 3 5 5 6 7 7 7 7 7 6 6 5 6 4 4 5 10 9 10 12 12
7 4 2 2 3 1 2 2 1 4 5 3 5 8 6 5 7 6 7 6 6 3 1 1 3 4 5 5 5 6 6 6 7 6 7 7 5 7 7 8 9 11 12 12
2 4 4 5 2 1 2 2 1 2 3 4 4 4 8 3 7 11 9 8 7 6 4 3 3 4 4 5 5 6 5 5 6 6 5 5 8 7 8 9 12 12 10 11
2 1 3 3 3 2 3 2 5 4 3 4 3 4 8 6 7 3 5 9 8 7 6 4 4 4 5 6 6 6 6 7 7 8 8 8 9 10 10 10 10 9 9 9
6 2 2 3 3 0 4 5 6 9 7 6 2 2 14 5 5 3 8 9 8 7 5 5 4 5 5 6 7 7 7 9 7 7 7 9 10 11 11 12 10 13 10 10
4 9 3 5 3 1 4 5 7 6 3 7 1 8 8 1 2 3 4 7 6 7 6 6 6 5 5 6 6 7 8 10 9 8 10 9 10 8 9 10 11 10 10 11
4 7 2 1 1 3 2 2 2 7 3 5 4 10 8 1 4 3 5 5 9 8 6 7 7 6 6 6 7 7 8 10 10 11 10 10 9 11 11 13 12 10 12 12
4 5 2 1 1 4 3 1 5 5 5 8 6 7 10 6 7 7 9 10 9 6 6 7 7 7 5 6 6 7 7 10 11 10 8 10 12 11 11 12 14 13 13 14
5 5 5 2 3 6 3 2 4 3 4 6 5 9 9 8 6 7 9 9 6 6 7 6 6 6 6 6 6 7 7 10 11 11 11 12 12 12 12 12 12 12 14 14
1 3 4 9 2 2 2 6 6 6 8 4 2 14 2 4 5 4 9 7 5 5 5 6 6 6 6 7 7 8 10 11 11 11 12 13 13 12 13 12 13 12 14 14
2 3 6 12 4 5 4 5 4 2 2 9 3 13 2 3 6 7 8 8 6 5 6 6 5 6 6 7 8 9 10 12 12 12 12 13 13 13 13 13 13 13 13 15
1 1 8 8 8 2 5 4 5 6 4 7 15 30 19 14 7 7 7 9 6 6 6 5 6 7 7 8 9 10 11 11 11 12 13 14 15 15 14 14 14 13 13 15
4 4 3 7 8 5 11 16 10 14 14 11 30 8 23 11 7 4 4 5 4 7 7 5 6 7 8 8 8 10 10 10 11 12 13 15 15 15 16 15 15 14 13 13
1 5 2 7 4 4 10 21 14 20 20 20 25 30 23 10 2 3 5 4 5 5 6 8 7 8 9 9 9 10 11 10 9 11 14 14 15 14 17 17 15 15 13 15
4 3 4 9 4 8 11 12 11 4 4 8 8 12 3 3 3 3 5 4 4 5 6 8 9 9 9 9 10 11 12 10 11 11 13 14 12 15 17 16 16 12 15 16
5 4 2 7 7 1 9 4 6 11 8 12 13 10 6 5 3 4 3 2 3 6 7 7 7 7 9 7 9 9 8 9 10 11 14 13 14 14 16 16 16 16 16 17
2 4 3 2 3 13 11 3 6 7 7 9 13 10 3 2 3 1 4 3 3 4 5 5 5 5 8 10 9 11 12 12 10 13 14 13 13 17 19 18 18 17 15 16
4 5 4 3 3 8 7 3 3 3 8 3 5 4 5 4 2 1 2 4 6 8 8 11 11 11 12 13 14 15 14 13 15 16 14 14 16 17 18 17 17 15 15 16
3 2 8 5 5 15 13 5 3 5 9 3 2 4 5 2 2 1 4 5 4 7 10 10 10 11 12 13 14 15 15 15 16 13 17 17 16 17 16 17 16 15 16 12
10 10 7 3 4 14 6 5 8 2 2 3 3 3 2 3 4 4 5 7 8 9 11 10 10 12 13 12 12 15 15 16 15 16 16 17 16 14 14 18 16 15 16 16
7 10 8 16 14 3 9 3 2 3 4 3 4 3 3 3 3 5 5 6 6 8 8 9 10 13 12 11 12 14 15 15 16 16 16 15 16 15 15 16 17 13 13 12
7 6 7 2 10 17 12 7 5 3 4 6 6 6 3 3 3 4 4 5 6 6 7 8 9 11 13 12 12 11 13 13 14 15 16 15 15 16 14 12 11 11 11 11
6 8 5 12 16 9 8 5 8 7 9 9 5 4 5 3 2 3 4 4 6 7 7 7 8 10 13 12 12 11 11 12 14 14 14 14 12 14 14 12 11 12 12 15
11 11 8 13 3 3 1 5 10 10 6 6 6 3 3 3 1 2 3 3 4 8 9 9 10 11 13 12 12 12 11 12 13 14 12 12 12 11 11 11 13 20 24 26
Wind_Direction
19 59 38 313 316 226 197 172 232 248 19 314 246 251 224 177 146 162 153 146 139 101 32 40 28 15 11 18 14 10 7 2 9 4 358 353 349 329 345 351 344 346 346 338
32 60 316 263 340 79 47 32 310 275 357 334 337 272 217 200 210 199 182 182 136 93 33 20 23 17 18 3 1 8 8 1 10 6 354 337 322 315 313 336 333 340 339 334
101 284 309 115 32 43 55 110 314 248 329 60 328 286 212 213 173 174 213 189 164 161 52 1 9 7 360 9 359 359 351 350 360 353 345 340 311 317 330 339 335 337 334 332
84 317 6 85 79 57 295 136 294 300 24 276 24 281 275 212 219 212 208 204 206 209 247 329 351 358 358 346 336 339 339 339 353 341 353 352 337 326 322 314 317 321 323 324
265 355 8 51 345 61 279 358 256 83 91 24 358 66 268 83 253 230 218 213 218 221 228 260 309 328 325 334 331 321 317 334 331 340 341 333 330 316 313 313 313 313 313 316
76 46 45 319 290 235 359 74 37 55 91 19 245 121 271 201 215 246 188 202 208 214 229 270 302 322 325 330 335 332 335 337 342 339 329 322 312 309 313 311 312 314 315 313
340 9 32 15 329 8 44 54 343 355 6 231 332 347 249 247 230 228 212 196 209 215 228 252 293 321 325 334 332 331 336 321 314 307 309 311 307 308 306 314 313 315 313 313
82 332 33 343 70 254 28 121 144 252 256 272 120 242 260 356 349 302 233 185 193 221 227 241 255 280 303 310 315 316 320 319 316 312 313 308 301 303 304 306 307 304 304 304
47 286 149 313 192 108 212 60 126 97 71 30 266 291 285 340 292 261 227 210 225 231 237 252 267 271 297 313 307 309 310 316 312 308 305 304 298 300 302 301 300 299 300 301
186 323 200 289 55 41 99 121 36 8 332 306 286 276 247 289 262 236 238 233 238 240 258 264 269 276 285 293 297 303 301 310 306 303 300 304 304 298 296 298 300 301 301 304
134 105 285 64 188 179 37 3 40 129 144 202 286 248 210 217 213 228 249 239 226 243 261 291 296 293 291 291 296 303 307 312 313 313 307 304 304 303 301 300 300 300 302 305
214 142 273 229 129 98 150 199 169 128 257 241 201 273 121 227 245 226 264 256 225 233 275 294 300 305 305 315 322 322 317 313 313 311 307 304 304 304 303 300 302 303 304 306
164 316 349 331 16 360 214 201 154 116 69 209 159 263 262 278 285 246 254 263 258 294 303 306 311 315 321 315 315 317 312 308 308 307 305 305 305 306 302 302 304 306 309 310
60 263 187 211 220 184 252 205 214 147 175 250 225 273 278 287 258 279 262 256 273 279 293 305 312 312 312 314 310 303 300 300 304 307 311 312 312 311 306 306 305 306 309 309
100 222 302 264 258 225 266 264 218 205 234 217 275 248 271 289 261 286 298 307 310 301 323 306 298 299 300 297 289 290 287 298 308 311 313 312 312 311 309 305 305 300 303 306
80 258 134 273 294 296 267 262 244 238 254 256 264 278 282 295 359 280 260 283 284 300 289 292 290 298 297 290 296 304 309 307 313 312 311 310 308 310 312 304 306 297 303 306
156 136 36 267 357 318 290 242 210 189 218 166 209 249 335 325 278 256 266 238 258 275 282 296 295 292 299 301 302 310 313 315 314 309 312 312 309 316 314 299 307 304 307 307
127 87 96 272 352 327 246 203 184 199 240 216 275 264 204 215 250 253 226 234 286 276 281 289 290 306 312 307 309 305 309 311 310 312 317 318 317 314 326 325 312 307 306 303
52 113 318 284 224 294 275 171 168 179 269 223 218 249 206 154 259 74 106 171 246 266 288 285 290 286 313 321 319 321 319 318 317 318 320 320 335 320 313 315 312 308 307 306
81 74 137 76 197 256 233 163 179 155 279 138 175 125 144 137 351 236 44 3 348 344 336 329 327 328 326 328 329 324 323 325 323 325 324 323 321 316 311 309 309 308 305 297
158 190 220 203 261 280 255 160 164 81 307 90 112 150 141 176 191 16 7 347 345 336 332 333 332 326 330 330 329 326 326 324 327 322 321 318 315 313 309 308 307 306 300 317
177 168 199 105 210 279 133 75 175 210 43 142 122 138 164 71 7 6 347 343 342 341 336 337 331 328 328 329 330 325 323 327 323 322 317 315 316 315 314 313 308 326 320 307
265 199 186 187 215 97 202 240 170 151 152 174 133 108 101 64 15 341 325 330 336 334 329 332 332 322 322 330 333 322 323 324 323 319 317 316 319 316 323 315 326 313 314 311
246 180 230 179 224 242 215 207 172 149 122 109 106 114 99 84 360 316 312 331 330 332 328 332 325 316 318 328 327 319 318 324 321 317 319 321 321 324 320 319 316 315 314 317
196 154 198 257 289 271 249 200 148 123 118 113 93 106 115 90 15 316 325 330 329 321 326 325 316 313 316 322 323 319 323 326 324 322 321 323 323 324 320 318 316 316 312 308
185 219 211 256 273 231 151 155 137 138 139 140 130 109 92 106 3 330 324 323 315 320 321 319 318 314 316 323 319 321 326 330 326 324 325 323 325 321 319 320 315 316 321 325